User: anonymous   Login
Location: Unspecified
(0.0000°N, 0.0000°E)
Time: 08:08:35
(UTC+00:00)
Language:

CORVUS BC1 - Orbit

View from above orbital plane
View from above orbital plane
View from above satellite
View from above satellite

Ground track
Ground track

The orbit data is extracted from the following two-line orbital elements,

1 42847U 17042Y   19345.73515081 -.00000022  00000-0  31270-5 0  9994
2 42847  97.5453 232.6327 0009126 177.8703 182.2557 14.92136522131264
Epoch (UTC): 11 December 2019 17:38:37
Eccentricity: 0.0009126
inclination: 97.5453°
perigee height: 585 km
apogee height: 597 km
right ascension of ascending node: 232.6327°
argument of perigee: 177.8703°
revolutions per day: 14.92136522
mean anomaly at epoch: 182.2557°
orbit number at epoch: 13126

The dashed part of the orbit path shows where the satellite is in the earth's shadow,  

DLR